sat.trackr.live / text

‹ back to catalog

STARLINK-1184

NORAD 45098 · 2020-006BG

PAYLOAD ACTIVE UNKNOWN

§ Identity

Operator
Country
US
Launch date
2020-01-29
Launch site
AFETR
Launch vehicle
Mass (kg)
RCS (m²)

Purposes: comms

External: N2YO · Heavens-Above · Gunter

§ Orbital elements

Epoch: 2026-09-15T20:37:49.944576Z

Period
94.85 min
Inclination
53.0502°
Eccentricity
0.0002722
Mean motion
15.18255178 rev/d
Perigee alt
509.2 km
Apogee alt
513.0 km
Semi-major
6,889.3 km
B*
4.4575e-4
RAAN
100.9736°
Arg perigee
38.5005°
Mean anomaly
321.6183°
Rev number
36,585

§ Raw data

STARLINK-11841 45098U 20006BG  26258.85960584  .00008937  00000+0  44575-3 0  99962 45098  53.0502 100.9736 0002722  38.5005 321.6183 15.18255178365857

JSON: /api/v1/satellites/45098 · /tle

For live sub-satellite position, see the globe view (requires WebGL).

§ Visibility from observer

Set your observer location to see the next 7 days of passes ≥ 10°. The values pass through the URL so the page stays shareable.

No JS? Fill the form by hand. The geolocation button needs JavaScript.